| time (UTC) | temp C | wind direction | speed KPH | gust KPH | rain 1hr cm | rain 24hr cm | rain mn cm | humidity % | barometer mb |
| 20260902191216 | 23 | 103 | 0.0 | 1.6 | 361.62 | 0.00 | 0.00 | 58 | 1022.0 |
| 20260902190716 | 23 | 115 | 1.6 | 3.2 | 361.62 | 0.00 | 0.00 | 58 | 1022.0 |
| 20260902190217 | 23 | 58 | 1.6 | 3.2 | 361.62 | 0.00 | 0.00 | 57 | 1022.1 |
| 20260902185716 | 23 | 73 | 0.0 | 3.2 | 361.62 | 0.00 | 0.00 | 57 | 1022.0 |
| 20260902185216 | 23 | 56 | 0.0 | 4.8 | 361.62 | 0.00 | 0.00 | 57 | 1022.1 |
| 20260902184718 | 23 | 160 | 1.6 | 3.2 | 361.62 | 0.00 | 0.00 | 59 | 1022.0 |
| 20260902183716 | 23 | 37 | 4.8 | 3.2 | 361.62 | 0.00 | 0.00 | 58 | 1021.9 |
| 20260902183217 | 23 | 51 | 0.0 | 4.8 | 361.62 | 0.00 | 0.00 | 59 | 1021.9 |
| 20260902182216 | 23 | 42 | 1.6 | 6.4 | 361.62 | 0.00 | 0.00 | 59 | 1022.1 |
| 20260902181717 | 23 | 201 | 1.6 | 4.8 | 361.62 | 0.00 | 0.00 | 61 | 1021.9 |
| 20260902180717 | 23 | 69 | 0.0 | 4.8 | 361.62 | 0.00 | 0.00 | 62 | 1022.0 |
| 20260902180217 | 23 | 59 | 1.6 | 4.8 | 361.62 | 0.00 | 0.00 | 63 | 1022.0 |
| 20260902175717 | 23 | 0 | 1.6 | 3.2 | 361.62 | 0.00 | 0.00 | 62 | 1022.1 |
| 20260902175216 | 23 | 37 | 3.2 | 6.4 | 361.62 | 0.00 | 0.00 | 62 | 1022.1 |
| 20260902174717 | 23 | 0 | 0.0 | 0.0 | 361.62 | 0.00 | 0.00 | 65 | 1022.0 |
| 20260902174217 | 23 | 141 | 0.0 | 3.2 | 361.62 | 0.00 | 0.00 | 64 | 1022.1 |
| 20260902173716 | 23 | 42 | 0.0 | 4.8 | 361.62 | 0.00 | 0.00 | 63 | 1022.0 |
| 20260902173217 | 23 | 70 | 1.6 | 3.2 | 361.62 | 0.00 | 0.00 | 64 | 1022.1 |
| 20260902172216 | 23 | 110 | 0.0 | 4.8 | 361.62 | 0.00 | 0.00 | 63 | 1022.0 |
| 20260902171717 | 23 | 60 | 1.6 | 8.0 | 361.62 | 0.00 | 0.00 | 64 | 1022.0 |
| 20260902171216 | 23 | 62 | 4.8 | 6.4 | 361.62 | 0.00 | 0.00 | 61 | 1022.0 |
| 20260902170217 | 23 | 56 | 3.2 | 4.8 | 361.62 | 0.00 | 0.00 | 62 | 1022.1 |
| 20260902165716 | 23 | 0 | 0.0 | 0.0 | 361.62 | 0.00 | 0.00 | 68 | 1022.1 |
| 20260902165216 | 23 | 45 | 0.0 | 8.0 | 361.62 | 0.00 | 0.00 | 66 | 1022.2 |
| 20260902164719 | 23 | 100 | 1.6 | 3.2 | 361.62 | 0.00 | 0.00 | 67 | 1022.3 |
| 20260902164216 | 23 | 93 | 0.0 | 3.2 | 361.62 | 0.00 | 0.00 | 68 | 1022.3 |
| 20260902163716 | 23 | 52 | 0.0 | 4.8 | 361.62 | 0.00 | 0.00 | 68 | 1022.4 |
| 20260902163217 | 23 | 58 | 3.2 | 4.8 | 361.62 | 0.00 | 0.00 | 68 | 1022.4 |
| 20260902162716 | 23 | 114 | 3.2 | 3.2 | 361.62 | 0.00 | 0.00 | 69 | 1022.6 |
| 20260902162216 | 22 | 49 | 3.2 | 4.8 | 361.62 | 0.00 | 0.00 | 71 | 1022.7 |
| 20260902161718 | 22 | 155 | 0.0 | 6.4 | 361.62 | 0.00 | 0.00 | 73 | 1022.6 |
| 20260902161216 | 22 | 20 | 1.6 | 3.2 | 361.62 | 0.00 | 0.00 | 77 | 1022.7 |
| 20260902160716 | 22 | 35 | 1.6 | 3.2 | 361.62 | 0.00 | 0.00 | 74 | 1022.8 |
| 20260902160217 | 21 | 166 | 0.0 | 4.8 | 361.62 | 0.00 | 0.00 | 77 | 1022.9 |
| 20260902155716 | 21 | 0 | 0.0 | 0.0 | 361.62 | 0.00 | 0.00 | 78 | 1022.9 |
| 20260902155216 | 21 | 0 | 0.0 | 0.0 | 361.62 | 0.00 | 0.00 | 77 | 1022.9 |
| 20260902154717 | 21 | 84 | 0.0 | 3.2 | 361.62 | 0.00 | 0.00 | 80 | 1022.9 |
| 20260902154216 | 21 | 141 | 0.0 | 4.8 | 361.62 | 0.00 | 0.00 | 79 | 1022.9 |
| 20260902153716 | 21 | 145 | 1.6 | 9.7 | 361.62 | 0.00 | 0.00 | 80 | 1023.0 |
| 20260902153217 | 21 | 148 | 4.8 | 9.7 | 361.62 | 0.00 | 0.00 | 81 | 1023.1 |
| 20260902152716 | 21 | 203 | 3.2 | 8.0 | 361.62 | 0.00 | 0.00 | 82 | 1023.3 |
| 20260902152216 | 20 | 42 | 1.6 | 4.8 | 361.62 | 0.00 | 0.00 | 84 | 1023.1 |
| 20260902151717 | 20 | 58 | 1.6 | 3.2 | 361.62 | 0.00 | 0.00 | 86 | 1023.2 |
| 20260902151216 | 20 | 62 | 1.6 | 3.2 | 361.62 | 0.00 | 0.00 | 86 | 1023.3 |
| 20260902150716 | 20 | 0 | 0.0 | 0.0 | 361.62 | 0.00 | 0.00 | 88 | 1023.3 |
| 20260902150217 | 20 | 0 | 0.0 | 0.0 | 361.62 | 0.00 | 0.00 | 90 | 1023.2 |
| 20260902145716 | 20 | 195 | 0.0 | 9.7 | 361.62 | 0.00 | 0.00 | 90 | 1023.1 |
| 20260902144719 | 20 | 0 | 0.0 | 0.0 | 361.62 | 0.00 | 0.00 | 95 | 1023.3 |
| 20260902144216 | 20 | 0 | 0.0 | 0.0 | 361.62 | 0.00 | 0.00 | 96 | 1023.3 |
| 20260902143716 | 19 | 180 | 0.0 | 6.4 | 361.62 | 0.00 | 0.00 | 96 | 1023.3 |
| 20260902143217 | 19 | 197 | 4.8 | 8.0 | 361.62 | 0.00 | 0.00 | 96 | 1023.2 |
| 20260902142716 | 19 | 52 | 0.0 | 3.2 | 361.62 | 0.00 | 0.00 | 97 | 1023.1 |
| 20260902142216 | 19 | 0 | 0.0 | 0.0 | 361.62 | 0.00 | 0.00 | 97 | 1023.1 |
| 20260902141717 | 19 | 11 | 0.0 | 3.2 | 361.62 | 0.00 | 0.00 | 97 | 1022.9 |
| 20260902141217 | 19 | 66 | 0.0 | 4.8 | 361.62 | 0.00 | 0.00 | 98 | 1023.0 |
| 20260902140716 | 18 | 72 | 0.0 | 4.8 | 361.62 | 0.00 | 0.00 | 98 | 1023.0 |
| 20260902140217 | 18 | 0 | 0.0 | 0.0 | 361.62 | 0.00 | 0.00 | 98 | 1022.9 |
| 20260902135716 | 18 | 0 | 0.0 | 0.0 | 361.62 | 0.00 | 0.00 | 98 | 1022.8 |
| 20260902135216 | 18 | 0 | 0.0 | 0.0 | 361.62 | 0.00 | 0.00 | 98 | 1022.5 |
| 20260902134717 | 18 | 0 | 0.0 | 0.0 | 361.62 | 0.00 | 0.00 | 98 | 1022.3 |
| 20260902134216 | 18 | 0 | 0.0 | 0.0 | 361.62 | 0.00 | 0.00 | 98 | 1022.5 |
| 20260902133716 | 18 | 0 | 0.0 | 0.0 | 361.62 | 0.00 | 0.00 | 99 | 1022.5 |
| 20260902133217 | 18 | 0 | 0.0 | 0.0 | 361.62 | 0.00 | 0.00 | 98 | 1022.6 |
| 20260902132716 | 18 | 52 | 0.0 | 1.6 | 361.62 | 0.00 | 0.00 | 99 | 1022.5 |
| 20260902132216 | 18 | 53 | 0.0 | 3.2 | 361.62 | 0.00 | 0.00 | 98 | 1022.4 |
| 20260902131717 | 18 | 75 | 0.0 | 3.2 | 361.62 | 0.00 | 0.00 | 99 | 1022.5 |
| 20260902131216 | 17 | 115 | 0.0 | 6.4 | 361.62 | 0.00 | 0.00 | 99 | 1022.4 |
| 20260902130717 | 17 | 68 | 0.0 | 1.6 | 361.62 | 0.00 | 0.00 | 99 | 1022.5 |
| 20260902130217 | 17 | 0 | 0.0 | 0.0 | 361.62 | 0.00 | 0.00 | 99 | 1022.6 |
| 20260902125716 | 17 | 0 | 0.0 | 0.0 | 361.62 | 0.00 | 0.00 | 99 | 1022.6 |
| 20260902125216 | 17 | 0 | 0.0 | 0.0 | 361.62 | 0.00 | 0.00 | 99 | 1022.8 |
| 20260902124718 | 17 | 0 | 0.0 | 0.0 | 361.62 | 0.00 | 0.00 | 98 | 1022.8 |
| 20260902124216 | 17 | 0 | 0.0 | 0.0 | 361.62 | 0.00 | 0.00 | 99 | 1022.7 |
| 20260902123716 | 17 | 0 | 0.0 | 0.0 | 361.62 | 0.00 | 0.00 | 99 | 1022.7 |
| 20260902123217 | 17 | 0 | 0.0 | 0.0 | 361.62 | 0.00 | 0.00 | 98 | 1022.7 |
| 20260902122716 | 17 | 0 | 0.0 | 0.0 | 361.62 | 0.00 | 0.00 | 99 | 1022.9 |
| 20260902122216 | 17 | 0 | 0.0 | 0.0 | 361.62 | 0.00 | 0.00 | 99 | 1023.0 |
| 20260902121716 | 17 | 0 | 0.0 | 0.0 | 361.62 | 0.00 | 0.00 | 99 | 1022.9 |
| 20260902121216 | 17 | 0 | 0.0 | 0.0 | 361.62 | 0.00 | 0.00 | 99 | 1022.7 |
| 20260902120716 | 17 | 0 | 0.0 | 0.0 | 361.62 | 0.00 | 0.00 | 99 | 1022.8 |
| 20260902120216 | 16 | 0 | 0.0 | 0.0 | 361.62 | 0.00 | 0.00 | 99 | 1022.8 |
| 20260902115716 | 16 | 0 | 0.0 | 0.0 | 361.62 | 0.00 | 0.00 | 99 | 1022.8 |
| 20260902115216 | 16 | 0 | 0.0 | 0.0 | 361.62 | 0.00 | 0.00 | 99 | 1022.9 |
| 20260902114717 | 16 | 0 | 0.0 | 0.0 | 361.62 | 0.00 | 0.00 | 99 | 1023.0 |
| 20260902114216 | 16 | 0 | 0.0 | 0.0 | 361.62 | 0.00 | 0.00 | 99 | 1023.0 |
| 20260902113716 | 16 | 0 | 0.0 | 0.0 | 361.62 | 0.00 | 0.00 | 99 | 1022.9 |
| 20260902113216 | 16 | 0 | 0.0 | 0.0 | 361.62 | 0.00 | 0.00 | 99 | 1022.9 |
| 20260902112716 | 16 | 0 | 0.0 | 0.0 | 361.62 | 0.00 | 0.00 | 99 | 1023.1 |
| 20260902112216 | 16 | 0 | 0.0 | 0.0 | 361.62 | 0.00 | 0.00 | 99 | 1023.1 |
| 20260902111716 | 16 | 0 | 0.0 | 0.0 | 361.62 | 0.00 | 0.00 | 99 | 1022.9 |
| 20260902111216 | 16 | 0 | 0.0 | 0.0 | 361.62 | 0.00 | 0.00 | 99 | 1022.7 |
| 20260902110716 | 16 | 0 | 0.0 | 0.0 | 361.62 | 0.00 | 0.00 | 99 | 1022.6 |
| 20260902110216 | 16 | 0 | 0.0 | 0.0 | 361.62 | 0.00 | 0.00 | 99 | 1022.8 |
| 20260902105216 | 16 | 0 | 0.0 | 0.0 | 361.62 | 0.00 | 0.00 | 99 | 1022.7 |
| 20260902104717 | 16 | 0 | 0.0 | 0.0 | 361.62 | 0.00 | 0.00 | 99 | 1022.6 |
| 20260902104216 | 16 | 0 | 0.0 | 0.0 | 361.62 | 0.00 | 0.00 | 99 | 1022.5 |
| 20260902103216 | 16 | 0 | 0.0 | 0.0 | 361.62 | 0.00 | 0.00 | 98 | 1022.3 |
| 20260902102216 | 16 | 0 | 0.0 | 0.0 | 361.62 | 0.00 | 0.00 | 98 | 1022.2 |
| 20260902102130 | 16 | 0 | 0.0 | 0.0 | 361.62 | 0.00 | 0.00 | 98 | 1021.5 |
| 20260902101716 | 16 | 0 | 0.0 | 0.0 | 361.62 | 0.00 | 0.00 | 98 | 1022.2 |
| 20260902100216 | 16 | 0 | 0.0 | 0.0 | 361.62 | 0.00 | 0.00 | 98 | 1022.1 |
| 20260902095716 | 16 | 0 | 0.0 | 0.0 | 361.62 | 0.00 | 0.00 | 98 | 1022.1 |
| 20260902094723 | 16 | 0 | 0.0 | 0.0 | 361.62 | 0.00 | 0.00 | 98 | 1021.9 |
| 20260902093716 | 16 | 0 | 0.0 | 0.0 | 361.62 | 0.00 | 0.00 | 98 | 1021.8 |
| 20260902093216 | 16 | 0 | 0.0 | 0.0 | 361.62 | 0.00 | 0.00 | 98 | 1021.8 |
| 20260902092716 | 16 | 0 | 0.0 | 0.0 | 361.62 | 0.00 | 0.00 | 98 | 1021.8 |
| 20260902092216 | 16 | 0 | 0.0 | 0.0 | 361.62 | 0.00 | 0.00 | 98 | 1021.7 |
| 20260902091716 | 16 | 0 | 0.0 | 0.0 | 361.62 | 0.00 | 0.00 | 98 | 1021.7 |
| 20260902091215 | 16 | 0 | 0.0 | 0.0 | 361.62 | 0.00 | 0.00 | 98 | 1021.7 |
| 20260902090715 | 16 | 0 | 0.0 | 0.0 | 361.62 | 0.00 | 0.00 | 98 | 1021.6 |
| 20260902090217 | 16 | 0 | 0.0 | 0.0 | 361.62 | 0.00 | 0.00 | 98 | 1021.6 |
| 20260902085215 | 16 | 0 | 0.0 | 0.0 | 361.62 | 0.00 | 0.00 | 98 | 1021.5 |
| 20260902084716 | 16 | 0 | 0.0 | 0.0 | 361.62 | 0.00 | 0.00 | 98 | 1021.4 |
| 20260902084216 | 16 | 0 | 0.0 | 0.0 | 361.62 | 0.00 | 0.00 | 98 | 1021.4 |
| 20260902083217 | 16 | 0 | 0.0 | 0.0 | 361.62 | 0.00 | 0.00 | 98 | 1021.4 |
| 20260902082215 | 16 | 0 | 0.0 | 0.0 | 361.62 | 0.00 | 0.00 | 98 | 1021.4 |
| 20260902081716 | 16 | 63 | 0.0 | 3.2 | 361.62 | 0.00 | 0.00 | 98 | 1021.4 |
| 20260902080718 | 16 | 0 | 0.0 | 0.0 | 361.62 | 0.00 | 0.00 | 98 | 1021.6 |
| 20260902080216 | 16 | 0 | 0.0 | 0.0 | 361.62 | 0.00 | 0.00 | 98 | 1021.5 |
| 20260902074721 | 16 | 0 | 0.0 | 0.0 | 361.62 | 0.00 | 0.00 | 98 | 1021.6 |
| 20260902073716 | 16 | 0 | 0.0 | 0.0 | 361.62 | 0.00 | 0.00 | 98 | 1021.6 |
| 20260902073222 | 16 | 0 | 0.0 | 0.0 | 361.62 | 0.00 | 0.00 | 98 | 1021.7 |
| 20260902072215 | 16 | 0 | 0.0 | 0.0 | 361.62 | 0.00 | 0.00 | 98 | 1021.9 |
| 20260902071723 | 16 | 0 | 0.0 | 0.0 | 361.62 | 0.00 | 0.00 | 98 | 1021.8 |
| 20260902070715 | 16 | 0 | 0.0 | 0.0 | 361.62 | 0.00 | 0.00 | 98 | 1021.7 |
| 20260902070218 | 16 | 0 | 0.0 | 0.0 | 361.62 | 0.00 | 0.00 | 98 | 1021.6 |
| 20260902065215 | 16 | 0 | 0.0 | 0.0 | 361.62 | 0.00 | 0.00 | 98 | 1021.4 |
| 20260902064721 | 16 | 0 | 0.0 | 0.0 | 361.62 | 0.00 | 0.00 | 98 | 1021.4 |
| 20260902063219 | 16 | 0 | 0.0 | 0.0 | 361.62 | 0.00 | 0.00 | 98 | 1021.4 |
| 20260902061717 | 16 | 0 | 0.0 | 0.0 | 361.62 | 0.00 | 0.00 | 98 | 1021.6 |
| 20260902060216 | 16 | 0 | 0.0 | 0.0 | 361.62 | 0.00 | 0.00 | 98 | 1021.5 |
| 20260902055716 | 16 | 0 | 0.0 | 0.0 | 361.62 | 0.00 | 0.00 | 98 | 1021.5 |
| 20260902054719 | 16 | 0 | 0.0 | 0.0 | 361.62 | 0.00 | 0.00 | 98 | 1021.5 |
| 20260902053218 | 16 | 0 | 0.0 | 0.0 | 361.62 | 0.00 | 0.00 | 98 | 1021.4 |
| 20260902051720 | 16 | 0 | 0.0 | 0.0 | 361.62 | 0.00 | 0.00 | 98 | 1021.4 |
| 20260902050216 | 16 | 0 | 0.0 | 0.0 | 361.62 | 0.00 | 0.00 | 98 | 1021.1 |
| 20260902045215 | 16 | 0 | 0.0 | 0.0 | 361.62 | 0.00 | 0.00 | 98 | 1021.0 |
| 20260902044719 | 16 | 0 | 0.0 | 0.0 | 361.62 | 0.00 | 0.00 | 97 | 1020.9 |
| 20260902043716 | 16 | 0 | 0.0 | 0.0 | 361.62 | 0.00 | 0.00 | 98 | 1020.7 |
| 20260902043217 | 16 | 0 | 0.0 | 0.0 | 361.62 | 0.00 | 0.00 | 98 | 1020.6 |
| 20260902042215 | 16 | 0 | 0.0 | 0.0 | 361.62 | 0.00 | 0.00 | 98 | 1020.5 |
| 20260902041723 | 16 | 0 | 0.0 | 0.0 | 361.62 | 0.00 | 0.00 | 97 | 1020.6 |
| 20260902040216 | 16 | 0 | 0.0 | 0.0 | 361.62 | 0.00 | 0.00 | 98 | 1020.5 |
| 20260902035215 | 16 | 0 | 0.0 | 0.0 | 361.62 | 0.00 | 1.02 | 97 | 1020.5 |
| 20260902034722 | 16 | 0 | 0.0 | 0.0 | 361.62 | 0.00 | 1.02 | 97 | 1020.3 |
| 20260902033216 | 16 | 0 | 0.0 | 0.0 | 361.62 | 0.00 | 1.02 | 97 | 1019.7 |
| 20260902032215 | 16 | 0 | 0.0 | 0.0 | 361.62 | 0.00 | 1.02 | 97 | 1019.8 |
| 20260902031718 | 16 | 0 | 0.0 | 0.0 | 361.62 | 0.00 | 1.02 | 97 | 1020.0 |
| 20260902031216 | 16 | 0 | 0.0 | 0.0 | 361.62 | 0.00 | 1.02 | 97 | 1020.0 |
| 20260902030216 | 16 | 0 | 0.0 | 0.0 | 361.62 | 0.00 | 1.02 | 97 | 1020.1 |
| 20260902025716 | 16 | 0 | 0.0 | 0.0 | 361.62 | 0.00 | 1.02 | 97 | 1020.1 |
| 20260902025216 | 16 | 0 | 0.0 | 0.0 | 361.62 | 0.00 | 1.02 | 97 | 1020.1 |
| 20260902024719 | 16 | 0 | 0.0 | 0.0 | 361.62 | 0.00 | 1.02 | 97 | 1020.0 |
| 20260902023217 | 16 | 0 | 0.0 | 0.0 | 361.62 | 0.00 | 1.02 | 97 | 1020.2 |
| 20260902022215 | 16 | 0 | 0.0 | 0.0 | 361.62 | 0.00 | 1.02 | 97 | 1020.3 |
| 20260902021723 | 16 | 0 | 0.0 | 0.0 | 361.62 | 0.00 | 1.02 | 97 | 1020.3 |
| 20260902021215 | 16 | 0 | 0.0 | 0.0 | 361.62 | 0.00 | 1.02 | 97 | 1020.3 |
| 20260902020715 | 16 | 0 | 0.0 | 0.0 | 361.62 | 0.00 | 1.02 | 97 | 1020.3 |
| 20260902020218 | 16 | 0 | 0.0 | 0.0 | 361.62 | 0.00 | 1.02 | 97 | 1020.4 |
| 20260902015715 | 16 | 0 | 0.0 | 0.0 | 361.62 | 0.00 | 1.02 | 97 | 1020.4 |
| 20260902015215 | 16 | 0 | 0.0 | 0.0 | 361.62 | 0.00 | 1.02 | 97 | 1020.4 |
| 20260902014719 | 16 | 0 | 0.0 | 0.0 | 361.62 | 0.00 | 1.02 | 97 | 1020.2 |
| 20260902014215 | 16 | 0 | 0.0 | 0.0 | 361.62 | 0.00 | 1.02 | 97 | 1020.2 |
| 20260902013215 | 16 | 0 | 0.0 | 0.0 | 361.62 | 0.00 | 1.02 | 97 | 1020.2 |
| 20260902012717 | 16 | 0 | 0.0 | 0.0 | 361.62 | 0.00 | 1.02 | 97 | 1020.2 |
| 20260902011715 | 16 | 0 | 0.0 | 0.0 | 361.62 | 0.00 | 1.02 | 97 | 1020.2 |
| 20260902011215 | 16 | 0 | 0.0 | 0.0 | 361.62 | 0.00 | 1.02 | 97 | 1020.0 |
| 20260902010215 | 16 | 0 | 0.0 | 0.0 | 361.62 | 0.00 | 1.02 | 97 | 1020.2 |
| 20260902005715 | 16 | 0 | 0.0 | 0.0 | 361.62 | 0.00 | 1.02 | 97 | 1020.2 |
| 20260902005215 | 16 | 0 | 0.0 | 0.0 | 361.62 | 0.00 | 1.02 | 97 | 1020.0 |
| 20260902004716 | 16 | 0 | 0.0 | 0.0 | 361.62 | 0.00 | 1.02 | 97 | 1020.1 |
| 20260902004215 | 16 | 0 | 0.0 | 0.0 | 361.62 | 0.00 | 1.02 | 97 | 1019.9 |
| 20260902003715 | 17 | 0 | 0.0 | 0.0 | 361.62 | 0.00 | 1.02 | 97 | 1019.8 |
| 20260902003215 | 17 | 0 | 0.0 | 0.0 | 361.62 | 0.00 | 1.02 | 97 | 1019.7 |
| 20260902002716 | 17 | 0 | 0.0 | 0.0 | 361.62 | 0.00 | 1.02 | 97 | 1019.8 |
| 20260902002215 | 17 | 0 | 0.0 | 0.0 | 361.62 | 0.00 | 1.02 | 96 | 1019.9 |
| 20260902001715 | 17 | 0 | 0.0 | 0.0 | 361.62 | 0.00 | 1.02 | 96 | 1019.7 |
| 20260902001215 | 17 | 0 | 0.0 | 0.0 | 361.62 | 0.00 | 1.02 | 96 | 1019.7 |
| 20260902000715 | 17 | 0 | 0.0 | 0.0 | 361.62 | 0.00 | 1.02 | 96 | 1019.6 |
| 20260902000218 | 17 | 0 | 0.0 | 0.0 | 361.62 | 0.00 | 1.02 | 96 | 1019.5 |
| 20260901235715 | 17 | 0 | 0.0 | 0.0 | 361.62 | 0.00 | 1.02 | 96 | 1019.6 |
| 20260901235215 | 17 | 0 | 0.0 | 0.0 | 361.62 | 0.00 | 1.02 | 96 | 1019.4 |
| 20260901234718 | 17 | 0 | 0.0 | 0.0 | 361.62 | 0.00 | 1.02 | 96 | 1019.4 |
| 20260901234215 | 17 | 198 | 0.0 | 4.8 | 361.62 | 0.00 | 1.02 | 96 | 1019.5 |
| 20260901233716 | 17 | 281 | 1.6 | 4.8 | 361.62 | 0.00 | 1.02 | 96 | 1019.6 |
| 20260901233215 | 17 | 0 | 0.0 | 0.0 | 361.62 | 0.00 | 1.02 | 96 | 1019.7 |
| 20260901232715 | 17 | 0 | 0.0 | 0.0 | 361.62 | 0.00 | 1.02 | 96 | 1019.7 |
| 20260901232215 | 17 | 0 | 0.0 | 0.0 | 361.62 | 0.00 | 1.02 | 96 | 1019.8 |
| 20260901231715 | 17 | 0 | 0.0 | 0.0 | 361.62 | 0.00 | 1.02 | 96 | 1019.7 |
| 20260901231215 | 17 | 0 | 0.0 | 0.0 | 361.62 | 0.00 | 1.02 | 96 | 1019.8 |
| 20260901230715 | 17 | 0 | 0.0 | 0.0 | 361.62 | 0.00 | 1.02 | 96 | 1019.7 |
| 20260901230215 | 17 | 0 | 0.0 | 0.0 | 361.62 | 0.00 | 1.02 | 96 | 1019.5 |
| 20260901225715 | 17 | 0 | 0.0 | 0.0 | 361.62 | 0.00 | 1.02 | 96 | 1019.4 |
| 20260901225215 | 17 | 0 | 0.0 | 0.0 | 361.62 | 0.00 | 1.02 | 96 | 1019.4 |
| 20260901224720 | 17 | 0 | 0.0 | 0.0 | 361.62 | 0.00 | 1.02 | 96 | 1019.4 |
| 20260901224215 | 17 | 0 | 0.0 | 0.0 | 361.62 | 0.00 | 1.02 | 96 | 1019.4 |
| 20260901223715 | 17 | 0 | 0.0 | 0.0 | 361.62 | 0.00 | 1.02 | 96 | 1019.4 |
| 20260901223215 | 17 | 0 | 0.0 | 0.0 | 361.62 | 0.00 | 1.02 | 96 | 1019.4 |
| 20260901222715 | 17 | 0 | 0.0 | 0.0 | 361.62 | 0.00 | 1.02 | 96 | 1019.4 |
| 20260901222215 | 17 | 0 | 0.0 | 0.0 | 361.62 | 0.00 | 1.02 | 96 | 1019.4 |
| 20260901221717 | 17 | 0 | 0.0 | 0.0 | 361.62 | 0.00 | 1.02 | 96 | 1019.4 |
| 20260901221214 | 17 | 0 | 0.0 | 0.0 | 361.62 | 0.00 | 1.02 | 96 | 1019.4 |
| 20260901220715 | 17 | 0 | 0.0 | 0.0 | 361.62 | 0.00 | 1.02 | 96 | 1019.5 |
| 20260901220217 | 17 | 0 | 0.0 | 0.0 | 361.62 | 0.00 | 1.02 | 96 | 1019.4 |
| 20260901215716 | 17 | 0 | 0.0 | 0.0 | 361.62 | 0.00 | 1.02 | 96 | 1019.3 |
| 20260901215215 | 17 | 0 | 0.0 | 0.0 | 361.62 | 0.00 | 1.02 | 96 | 1019.3 |
| 20260901214715 | 17 | 0 | 0.0 | 0.0 | 361.62 | 0.00 | 1.02 | 95 | 1019.3 |
| 20260901214214 | 17 | 0 | 0.0 | 0.0 | 361.62 | 0.00 | 1.02 | 96 | 1019.2 |
| 20260901213715 | 17 | 198 | 0.0 | 6.4 | 361.62 | 0.00 | 1.02 | 95 | 1019.2 |
| 20260901213215 | 17 | 135 | 3.2 | 9.7 | 361.62 | 0.00 | 1.02 | 95 | 1019.2 |
| 20260901212715 | 18 | 210 | 0.0 | 6.4 | 361.62 | 0.00 | 1.02 | 95 | 1019.1 |
| 20260901211715 | 18 | 205 | 1.6 | 12.9 | 361.59 | 0.00 | 0.99 | 95 | 1019.1 |
| 20260901211215 | 18 | 174 | 4.8 | 19.3 | 361.59 | 0.00 | 0.99 | 96 | 1019.1 |
| 20260901210714 | 18 | 190 | 9.7 | 14.5 | 361.59 | 0.00 | 0.99 | 96 | 1019.0 |
| 20260901210216 | 18 | 210 | 1.6 | 8.0 | 361.59 | 0.00 | 0.99 | 96 | 1018.9 |
| 20260901204720 | 18 | 0 | 0.0 | 0.0 | 361.54 | 0.00 | 0.94 | 96 | 1018.7 |
| 20260901203715 | 18 | 0 | 0.0 | 0.0 | 361.52 | 0.00 | 0.91 | 97 | 1018.6 |
| 20260901203215 | 18 | 0 | 0.0 | 0.0 | 361.52 | 0.00 | 0.91 | 96 | 1018.5 |
| 20260901202716 | 18 | 0 | 0.0 | 0.0 | 361.52 | 0.00 | 0.91 | 96 | 1018.5 |
| 20260901202214 | 18 | 0 | 0.0 | 0.0 | 361.52 | 0.00 | 0.91 | 96 | 1018.6 |
| 20260901201716 | 18 | 0 | 0.0 | 0.0 | 361.52 | 0.00 | 0.91 | 96 | 1018.5 |
| 20260901201214 | 18 | 0 | 0.0 | 0.0 | 361.52 | 0.00 | 0.91 | 96 | 1018.6 |
| 20260901200716 | 18 | 0 | 0.0 | 0.0 | 361.52 | 0.00 | 0.91 | 96 | 1018.5 |
| 20260901200215 | 18 | 0 | 0.0 | 0.0 | 361.52 | 0.00 | 0.91 | 96 | 1018.5 |
| 20260901195715 | 18 | 0 | 0.0 | 0.0 | 361.52 | 0.00 | 0.91 | 96 | 1018.5 |
| 20260901194717 | 18 | 93 | 0.0 | 1.6 | 361.49 | 0.00 | 0.89 | 96 | 1018.5 |
| 20260901194214 | 18 | 76 | 0.0 | 3.2 | 361.49 | 0.00 | 0.89 | 96 | 1018.4 |
| 20260901193949 | 18 | 0 | 1.6 | 0.0 | 361.49 | 0.00 | 0.89 | 96 | 1018.4 |
| 20260901193215 | 18 | 52 | 0.0 | 3.2 | 361.49 | 0.00 | 0.89 | 96 | 1018.4 |
| 20260901192715 | 18 | 49 | 0.0 | 1.6 | 361.49 | 0.00 | 0.89 | 96 | 1018.5 |
| 20260901192214 | 18 | 56 | 0.0 | 3.2 | 361.49 | 0.00 | 0.89 | 96 | 1018.5 |
| 20260901191715 | 18 | 0 | 0.0 | 0.0 | 361.47 | 0.00 | 0.86 | 96 | 1018.6 |